Total_Precipitation_Accumulation
1.53 1.51 1.42 1.37 1.36 1.31 1.25 1.21 1.17 1.09 0.97 0.86 0.76 0.64 0.58 0.50 0.41 0.34 0.28 0.28 0.29 0.39 0.66 0.98 1.23 1.48 1.69 1.82 1.91 1.81 1.75 1.62 1.36 1.17 1.15 1.24 1.28 1.35 1.38 1.44 1.44 1.34 1.33
1.51 1.50 1.48 1.44 1.40 1.36 1.30 1.24 1.17 1.13 1.01 0.90 0.79 0.69 0.63 0.57 0.50 0.43 0.36 0.35 0.34 0.37 0.52 0.76 1.03 1.39 1.69 1.84 1.99 2.07 1.93 1.90 1.76 1.45 1.27 1.25 1.29 1.34 1.38 1.47 1.53 1.51 1.44
1.48 1.48 1.49 1.46 1.38 1.34 1.33 1.31 1.30 1.29 1.19 1.05 0.91 0.80 0.70 0.61 0.54 0.46 0.42 0.41 0.40 0.41 0.47 0.61 0.77 1.07 1.47 1.80 1.97 2.16 2.18 2.04 2.07 1.94 1.66 1.45 1.38 1.37 1.41 1.46 1.51 1.59 1.54
1.56 1.60 1.57 1.49 1.44 1.45 1.37 1.29 1.26 1.26 1.21 1.12 1.03 0.94 0.81 0.70 0.60 0.52 0.46 0.43 0.45 0.44 0.44 0.51 0.61 0.80 1.17 1.60 2.00 2.23 2.55 2.36 2.21 2.28 2.22 1.87 1.58 1.49 1.52 1.59 1.63 1.70 1.74
1.61 1.63 1.63 1.57 1.52 1.55 1.51 1.38 1.28 1.18 1.11 1.04 0.97 0.93 0.86 0.81 0.79 0.75 0.65 0.54 0.48 0.50 0.53 0.54 0.58 0.64 0.85 1.23 1.67 2.10 2.61 2.91 2.67 2.56 2.61 2.50 2.12 1.83 1.74 1.77 1.84 1.89 1.97
1.70 1.65 1.61 1.56 1.53 1.52 1.53 1.49 1.39 1.27 1.13 1.04 1.00 0.93 0.83 0.76 0.75 0.71 0.67 0.61 0.52 0.48 0.56 0.61 0.61 0.59 0.65 0.84 1.20 1.71 2.25 2.81 3.07 2.94 2.87 2.93 2.77 2.44 2.20 2.10 2.08 2.16 2.22
1.84 1.78 1.71 1.68 1.62 1.53 1.41 1.41 1.42 1.43 1.35 1.25 1.26 1.15 0.95 0.80 0.72 0.65 0.62 0.59 0.53 0.47 0.49 0.58 0.65 0.62 0.57 0.64 0.78 1.10 1.67 2.44 3.08 3.33 3.26 3.16 3.14 2.94 2.67 2.46 2.31 2.36 2.47
1.99 1.89 1.75 1.71 1.69 1.63 1.52 1.40 1.40 1.44 1.38 1.37 1.41 1.44 1.27 1.06 0.83 0.63 0.58 0.56 0.53 0.53 0.53 0.54 0.61 0.66 0.63 0.58 0.54 0.68 0.99 1.69 2.56 3.24 3.57 3.61 3.55 3.46 3.17 2.88 2.66 2.63 2.72
1.88 1.81 1.71 1.65 1.67 1.67 1.61 1.48 1.39 1.37 1.35 1.27 1.26 1.52 1.51 1.17 0.82 0.65 0.59 0.57 0.55 0.56 0.56 0.55 0.56 0.61 0.67 0.66 0.60 0.62 0.71 1.09 1.83 2.73 3.37 3.73 3.89 4.03 3.89 3.42 3.12 2.99 3.01
1.75 1.72 1.70 1.63 1.55 1.52 1.46 1.41 1.37 1.33 1.32 1.31 1.26 1.23 1.25 1.15 1.08 0.83 0.61 0.57 0.58 0.61 0.62 0.61 0.61 0.64 0.69 0.74 0.74 0.76 0.78 0.88 1.34 2.01 2.82 3.52 3.95 4.30 4.55 4.14 3.62 3.37 3.29
1.80 1.76 1.71 1.71 1.62 1.52 1.43 1.40 1.40 1.38 1.35 1.29 1.23 1.14 1.09 1.01 0.99 1.04 0.79 0.61 0.61 0.59 0.61 0.65 0.67 0.68 0.71 0.77 0.80 0.82 0.90 0.91 1.15 1.60 2.19 3.05 3.76 4.39 4.94 4.81 4.09 3.59 3.41
1.80 1.69 1.67 1.66 1.62 1.51 1.39 1.35 1.36 1.39 1.38 1.31 1.21 1.14 1.14 1.10 0.98 1.02 0.94 0.71 0.67 0.63 0.63 0.67 0.72 0.72 0.71 0.76 0.79 0.90 0.94 0.97 1.08 1.32 1.65 2.24 3.03 3.76 4.63 5.00 4.47 3.82 3.48
1.73 1.65 1.54 1.48 1.45 1.42 1.40 1.35 1.33 1.31 1.32 1.37 1.32 1.20 1.13 1.05 0.99 1.06 1.12 0.98 0.87 0.73 0.71 0.71 0.71 0.77 0.80 0.81 0.83 0.92 0.91 0.99 1.10 1.23 1.38 1.61 2.11 2.91 3.83 4.82 5.07 4.40 3.82
1.59 1.56 1.54 1.45 1.32 1.27 1.31 1.35 1.33 1.28 1.29 1.34 1.30 1.23 1.17 1.05 1.06 1.14 1.24 1.36 1.32 0.99 0.84 0.76 0.71 0.74 0.80 0.87 0.91 0.98 0.87 1.00 1.10 1.20 1.29 1.39 1.57 2.07 2.93 3.98 5.01 5.10 4.42
1.59 1.60 1.55 1.53 1.44 1.33 1.27 1.28 1.28 1.24 1.27 1.27 1.27 1.25 1.25 1.14 1.11 1.14 1.20 1.39 1.71 1.52 0.97 0.73 0.71 0.74 0.80 0.89 1.00 0.96 0.89 0.97 1.06 1.18 1.31 1.39 1.46 1.69 2.11 2.79 3.74 4.76 5.01
1.51 1.62 1.62 1.55 1.56 1.52 1.44 1.34 1.27 1.23 1.29 1.31 1.34 1.36 1.34 1.32 1.31 1.26 1.26 1.32 1.50 1.66 1.30 0.73 0.65 0.71 0.84 0.94 1.10 1.09 1.08 1.18 1.13 1.20 1.28 1.35 1.38 1.51 1.74 2.12 2.73 3.67 4.62
1.36 1.47 1.55 1.55 1.55 1.56 1.52 1.48 1.38 1.33 1.34 1.34 1.40 1.46 1.43 1.40 1.49 1.43 1.35 1.33 1.36 1.50 1.52 0.88 0.67 0.70 0.92 1.11 1.17 1.20 1.24 1.20 1.13 1.21 1.27 1.32 1.37 1.45 1.63 1.86 2.20 2.79 3.69
1.35 1.39 1.53 1.64 1.62 1.59 1.55 1.54 1.50 1.49 1.52 1.48 1.41 1.43 1.45 1.45 1.51 1.50 1.50 1.42 1.32 1.30 1.41 1.18 0.84 0.83 0.99 1.17 1.24 1.28 1.34 1.31 1.23 1.31 1.35 1.42 1.50 1.56 1.68 1.80 2.00 2.28 2.89
1.50 1.44 1.49 1.62 1.66 1.65 1.61 1.53 1.52 1.56 1.63 1.69 1.66 1.63 1.56 1.56 1.58 1.53 1.55 1.50 1.39 1.30 1.31 1.31 1.05 0.92 1.00 1.13 1.27 1.35 1.39 1.37 1.36 1.44 1.41 1.44 1.57 1.67 1.74 1.79 1.89 2.06 2.31
1.55 1.52 1.48 1.52 1.62 1.72 1.78 1.77 1.78 1.73 1.72 1.75 1.78 1.79 1.75 1.74 1.69 1.65 1.68 1.63 1.59 1.60 1.55 1.54 1.35 1.14 1.09 1.12 1.31 1.52 1.61 1.46 1.43 1.43 1.47 1.46 1.57 1.66 1.72 1.70 1.64 1.76 1.99
1.58 1.54 1.51 1.46 1.52 1.77 2.13 2.09 1.99 1.91 1.78 1.69 1.64 1.65 1.72 1.90 1.96 2.02 2.05 1.94 1.93 2.04 1.99 1.90 1.67 1.44 1.29 1.32 1.44 1.52 1.74 1.70 1.60 1.52 1.54 1.47 1.47 1.46 1.49 1.58 1.64 1.73 1.90
1.65 1.57 1.52 1.47 1.51 1.73 2.26 2.33 1.97 1.72 1.59 1.56 1.55 1.47 1.46 1.69 1.79 1.95 2.10 2.10 2.17 2.34 2.41 2.30 2.00 1.71 1.40 1.33 1.46 1.69 1.92 2.11 2.03 1.61 1.63 1.68 1.63 1.65 1.54 1.51 1.67 1.73 1.85
1.70 1.63 1.53 1.46 1.41 1.53 2.00 2.09 1.87 1.54 1.39 1.37 1.40 1.39 1.35 1.38 1.51 1.46 1.67 1.80 1.84 2.03 2.28 2.38 2.33 1.85 1.55 1.43 1.73 1.95 2.00 2.14 2.02 1.76 1.86 2.09 1.89 1.83 1.68 1.65 1.69 1.60 1.69
1.77 1.67 1.56 1.48 1.43 1.41 1.80 1.96 1.82 1.42 1.27 1.21 1.20 1.18 1.18 1.22 1.33 1.49 1.59 1.60 1.52 1.61 1.89 2.09 2.26 2.06 1.84 1.80 2.08 2.39 2.51 2.53 2.29 2.04 2.02 2.41 2.17 2.02 1.92 1.79 1.72 1.55 1.58
1.71 1.66 1.56 1.41 1.35 1.36 1.61 1.91 1.88 1.47 1.30 1.15 1.10 1.09 1.06 1.05 1.38 1.65 1.59 1.52 1.39 1.38 1.57 1.88 2.11 2.21 2.30 2.43 2.60 2.90 3.10 3.07 2.86 2.41 2.16 2.37 2.38 2.29 2.14 2.02 1.84 1.66 1.54
1.61 1.60 1.57 1.41 1.31 1.27 1.48 1.85 2.03 1.54 1.34 1.20 1.11 1.06 1.19 1.24 1.49 1.60 1.50 1.56 1.60 1.42 1.35 1.44 1.54 1.67 1.76 1.94 2.33 2.61 2.89 3.08 3.00 2.88 2.35 2.33 2.46 2.52 2.78 2.32 1.88 1.57 1.43